Starlink 5764

operational
NORAD ID: 55602 Int'l Des: 2023-020 Owner: SPXS Country: US Constellation: starlink
LEOCIRCULAR

Starlink 5764について

説明を読み込み中...

リアルタイム位置

3D地球を読み込み中...

次回通過

高度履歴

Altitude vs Time

uPlot chart will show altitude changes over time

軌道要素

1 55602U 23020AK 25341.14665029 .00000694 00000-0 66453-4 0 9990
2 55602 43.0027 134.9112 0001233 271.1808 88.8893 15.02533130155146
Epoch: Dec 7, 2025 • Age: 15 hours

現在のステータス

高度 563.5 km
速度 7.58 km/s
衛星直下点 -20.97°S, 23.45°W
打ち上げ日 Feb 12, 2023
運用期間 2.8 years
タイプ internet

技術仕様

分類 Payload
質量 305.00 kg
乾燥質量 290.00 kg
総質量 305.00 kg
長さ 0.20 m
直径 2.80 m
スパン 9.00 m
形状 Box + pan
製造者 SPXS
バスタイプ Starlink
フェーズステータス In Orbit
所有者/国 SPXS/US

大規模コンステレーション

Loading constellations...